Time,TemperatureF,DewpointF,PressureIn,WindDirection,WindDirectionDegrees,WindSpeedMPH,WindSpeedGustMPH,Humidity,HourlyPrecipIn,Conditions,Clouds,dailyrainin,SoftwareType,DateUTC
2013-02-28 00:13:00,41.3,27.0,30.18,NNW,338,8.0,-999.0,57,-99.99,,,0.00,weatherlink.com 1.10,2013-02-28 06:13:00,
2013-02-28 00:28:00,41.0,27.0,30.19,NNW,344,7.0,-999.0,58,-99.99,,,0.00,weatherlink.com 1.10,2013-02-28 06:28:00,
2013-02-28 00:43:00,40.5,27.0,30.20,NNW,329,11.0,-999.0,58,-99.99,,,0.00,weatherlink.com 1.10,2013-02-28 06:43:00,
2013-02-28 00:58:00,40.2,27.0,30.19,NW,326,4.0,-999.0,59,-99.99,,,0.00,weatherlink.com 1.10,2013-02-28 06:58:00,
2013-02-28 01:13:00,39.8,27.0,30.19,North,350,2.0,-999.0,60,-99.99,,,0.00,weatherlink.com 1.10,2013-02-28 07:13:00,
2013-02-28 01:28:00,39.5,27.0,30.19,NNW,340,2.0,-999.0,61,-99.99,,,0.00,weatherlink.com 1.10,2013-02-28 07:28:00,
2013-02-28 01:43:00,39.0,27.0,30.20,NNW,340,5.0,-999.0,62,-99.99,,,0.00,weatherlink.com 1.10,2013-02-28 07:43:00,
2013-02-28 01:58:00,38.8,27.0,30.20,NW,326,4.0,-999.0,64,-99.99,,,0.00,weatherlink.com 1.10,2013-02-28 07:58:00,
2013-02-28 02:13:00,38.5,27.0,30.20,NW,325,1.0,-999.0,64,-99.99,,,0.00,weatherlink.com 1.10,2013-02-28 08:13:00,
2013-02-28 02:28:00,38.1,28.0,30.20,NW,314,8.0,-999.0,66,-99.99,,,0.00,weatherlink.com 1.10,2013-02-28 08:28:00,
2013-02-28 02:43:00,38.1,28.0,30.20,NW,314,5.0,-999.0,67,-99.99,,,0.00,weatherlink.com 1.10,2013-02-28 08:43:00,
2013-02-28 02:58:00,37.8,28.0,30.19,NW,323,7.0,-999.0,69,-99.99,,,0.00,weatherlink.com 1.10,2013-02-28 08:58:00,
2013-02-28 03:13:00,37.5,29.0,30.18,NNW,330,5.0,-999.0,70,-99.99,,,0.00,weatherlink.com 1.10,2013-02-28 09:13:00,
2013-02-28 03:28:00,37.5,29.0,30.18,NNW,329,6.0,-999.0,71,-99.99,,,0.00,weatherlink.com 1.10,2013-02-28 09:28:00,
2013-02-28 03:43:00,37.9,29.0,30.19,NW,324,7.0,-999.0,70,-99.99,,,0.00,weatherlink.com 1.10,2013-02-28 09:43:00,
2013-02-28 03:58:00,38.2,29.0,30.19,NW,323,5.0,-999.0,70,-99.99,,,0.00,weatherlink.com 1.10,2013-02-28 09:58:00,
2013-02-28 04:13:00,38.2,29.0,30.19,NNW,332,8.0,-999.0,70,-99.99,,,0.00,weatherlink.com 1.10,2013-02-28 10:13:00,
2013-02-28 04:28:00,38.0,29.0,30.19,NW,323,6.0,-999.0,70,-99.99,,,0.00,weatherlink.com 1.10,2013-02-28 10:28:00,
2013-02-28 04:43:00,37.8,29.0,30.19,NW,323,7.0,-999.0,71,-99.99,,,0.00,weatherlink.com 1.10,2013-02-28 10:43:00,
2013-02-28 04:58:00,37.5,29.0,30.18,NW,317,4.0,-999.0,72,-99.99,,,0.00,weatherlink.com 1.10,2013-02-28 10:58:00,
2013-02-28 05:13:00,37.3,29.0,30.18,NW,323,10.0,-999.0,72,-99.99,,,0.00,weatherlink.com 1.10,2013-02-28 11:13:00,
2013-02-28 05:28:00,37.3,29.0,30.19,NW,321,2.0,-999.0,72,-99.99,,,0.00,weatherlink.com 1.10,2013-02-28 11:28:00,
2013-02-28 05:43:00,37.3,29.0,30.19,NNW,329,8.0,-999.0,71,-99.99,,,0.00,weatherlink.com 1.10,2013-02-28 11:43:00,
2013-02-28 05:58:00,37.4,28.0,30.20,NNW,336,7.0,-999.0,69,-99.99,,,0.00,weatherlink.com 1.10,2013-02-28 11:58:00,
2013-02-28 06:13:00,37.5,28.0,30.20,NNW,335,5.0,-999.0,69,-99.99,,,0.00,weatherlink.com 1.10,2013-02-28 12:13:00,
2013-02-28 06:28:00,37.3,28.0,30.20,NNW,331,6.0,-999.0,69,-99.99,,,0.00,weatherlink.com 1.10,2013-02-28 12:28:00,
2013-02-28 06:43:00,36.8,28.0,30.21,NNW,330,1.0,-999.0,70,-99.99,,,0.00,weatherlink.com 1.10,2013-02-28 12:43:00,
2013-02-28 06:58:00,36.1,28.0,30.21,NNW,329,4.0,-999.0,71,-99.99,,,0.00,weatherlink.com 1.10,2013-02-28 12:58:00,
2013-02-28 07:13:00,35.9,28.0,30.21,NNW,327,4.0,-999.0,72,-99.99,,,0.00,weatherlink.com 1.10,2013-02-28 13:13:00,
2013-02-28 07:28:00,36.7,28.0,30.21,NW,306,4.0,-999.0,72,-99.99,,,0.00,weatherlink.com 1.10,2013-02-28 13:28:00,
2013-02-28 07:43:00,37.5,29.0,30.22,NNW,328,2.0,-999.0,70,-99.99,,,0.00,weatherlink.com 1.10,2013-02-28 13:43:00,
2013-02-28 07:58:00,38.3,29.0,30.23,NW,324,6.0,-999.0,69,-99.99,,,0.00,weatherlink.com 1.10,2013-02-28 13:58:00,
2013-02-28 08:13:00,39.4,29.0,30.23,NW,306,5.0,-999.0,67,-99.99,,,0.00,weatherlink.com 1.10,2013-02-28 14:13:00,
2013-02-28 08:28:00,40.4,29.0,30.24,NNW,327,6.0,-999.0,65,-99.99,,,0.00,weatherlink.com 1.10,2013-02-28 14:28:00,
2013-02-28 08:43:00,41.0,29.0,30.24,NNW,332,8.0,-999.0,62,-99.99,,,0.00,weatherlink.com 1.10,2013-02-28 14:43:00,
2013-02-28 08:58:00,41.2,29.0,30.24,NNW,328,11.0,-999.0,61,-99.99,,,0.00,weatherlink.com 1.10,2013-02-28 14:58:00,
2013-02-28 09:13:00,41.8,28.0,30.24,NW,313,12.0,-999.0,59,-99.99,,,0.00,weatherlink.com 1.10,2013-02-28 15:13:00,
2013-02-28 09:28:00,42.7,29.0,30.24,NNW,343,11.0,-999.0,58,-99.99,,,0.00,weatherlink.com 1.10,2013-02-28 15:28:00,
2013-02-28 09:43:00,43.7,29.0,30.25,NNW,327,6.0,-999.0,57,-99.99,,,0.00,weatherlink.com 1.10,2013-02-28 15:43:00,
2013-02-28 09:58:00,44.2,28.0,30.25,NNW,335,11.0,-999.0,54,-99.99,,,0.00,weatherlink.com 1.10,2013-02-28 15:58:00,
2013-02-28 10:13:00,45.4,29.0,30.25,NW,313,7.0,-999.0,53,-99.99,,,0.00,weatherlink.com 1.10,2013-02-28 16:13:00,
2013-02-28 10:28:00,46.0,29.0,30.24,North,5,9.0,-999.0,51,-99.99,,,0.00,weatherlink.com 1.10,2013-02-28 16:28:00,
2013-02-28 10:43:00,46.8,29.0,30.25,NW,324,12.0,-999.0,51,-99.99,,,0.00,weatherlink.com 1.10,2013-02-28 16:43:00,
2013-02-28 10:58:00,47.9,29.0,30.24,NW,313,12.0,-999.0,48,-99.99,,,0.00,weatherlink.com 1.10,2013-02-28 16:58:00,
2013-02-28 11:13:00,48.6,30.0,30.24,NW,325,6.0,-999.0,49,-99.99,,,0.00,weatherlink.com 1.10,2013-02-28 17:13:00,
2013-02-28 11:28:00,48.7,29.0,30.24,NNW,336,11.0,-999.0,47,-99.99,,,0.00,weatherlink.com 1.10,2013-02-28 17:28:00,
2013-02-28 11:43:00,49.3,29.0,30.23,NNW,342,11.0,-999.0,46,-99.99,,,0.00,weatherlink.com 1.10,2013-02-28 17:43:00,
2013-02-28 11:58:00,50.3,30.0,30.23,NW,304,12.0,-999.0,45,-99.99,,,0.00,weatherlink.com 1.10,2013-02-28 17:58:00,
2013-02-28 12:13:00,51.5,30.0,30.22,NNW,341,13.0,-999.0,44,-99.99,,,0.00,weatherlink.com 1.10,2013-02-28 18:13:00,
2013-02-28 12:28:00,52.0,29.0,30.21,North,355,9.0,-999.0,41,-99.99,,,0.00,weatherlink.com 1.10,2013-02-28 18:28:00,
2013-02-28 12:43:00,52.5,28.0,30.20,NW,326,18.0,-999.0,39,-99.99,,,0.00,weatherlink.com 1.10,2013-02-28 18:43:00,
2013-02-28 12:58:00,53.1,29.0,30.19,NNW,331,2.0,-999.0,39,-99.99,,,0.00,weatherlink.com 1.10,2013-02-28 18:58:00,
2013-02-28 13:13:00,54.1,28.0,30.18,NW,315,11.0,-999.0,37,-99.99,,,0.00,weatherlink.com 1.10,2013-02-28 19:13:00,
2013-02-28 13:28:00,54.4,28.0,30.18,NW,326,10.0,-999.0,36,-99.99,,,0.00,weatherlink.com 1.10,2013-02-28 19:28:00,
2013-02-28 13:43:00,55.4,27.0,30.16,NNW,344,13.0,-999.0,34,-99.99,,,0.00,weatherlink.com 1.10,2013-02-28 19:43:00,
2013-02-28 13:58:00,55.0,28.0,30.16,NW,325,6.0,-999.0,36,-99.99,,,0.00,weatherlink.com 1.10,2013-02-28 19:58:00,
2013-02-28 14:13:00,56.0,28.0,30.15,WNW,301,12.0,-999.0,34,-99.99,,,0.00,weatherlink.com 1.10,2013-02-28 20:13:00,
2013-02-28 14:28:00,56.3,27.0,30.15,NW,312,17.0,-999.0,32,-99.99,,,0.00,weatherlink.com 1.10,2013-02-28 20:28:00,
2013-02-28 14:43:00,56.6,27.0,30.14,NW,319,5.0,-999.0,32,-99.99,,,0.00,weatherlink.com 1.10,2013-02-28 20:43:00,
2013-02-28 14:58:00,57.3,26.0,30.14,NNW,341,10.0,-999.0,30,-99.99,,,0.00,weatherlink.com 1.10,2013-02-28 20:58:00,
2013-02-28 15:13:00,57.6,26.0,30.14,West,280,4.0,-999.0,30,-99.99,,,0.00,weatherlink.com 1.10,2013-02-28 21:13:00,
2013-02-28 15:28:00,57.7,25.0,30.14,North,360,13.0,-999.0,28,-99.99,,,0.00,weatherlink.com 1.10,2013-02-28 21:28:00,
2013-02-28 15:43:00,57.7,26.0,30.14,NNW,345,10.0,-999.0,30,-99.99,,,0.00,weatherlink.com 1.10,2013-02-28 21:43:00,
2013-02-28 15:58:00,58.0,26.0,30.13,North,360,20.0,-999.0,29,-99.99,,,0.00,weatherlink.com 1.10,2013-02-28 21:58:00,
2013-02-28 16:13:00,57.7,24.0,30.13,NNW,340,13.0,-999.0,27,-99.99,,,0.00,weatherlink.com 1.10,2013-02-28 22:13:00,
2013-02-28 16:28:00,58.1,24.0,30.13,NNW,343,7.0,-999.0,27,-99.99,,,0.00,weatherlink.com 1.10,2013-02-28 22:28:00,
2013-02-28 16:43:00,58.2,24.0,30.13,NW,319,9.0,-999.0,27,-99.99,,,0.00,weatherlink.com 1.10,2013-02-28 22:43:00,
2013-02-28 16:58:00,57.8,24.0,30.13,NNW,328,17.0,-999.0,27,-99.99,,,0.00,weatherlink.com 1.10,2013-02-28 22:58:00,
2013-02-28 17:13:00,57.5,25.0,30.13,NNW,331,6.0,-999.0,29,-99.99,,,0.00,weatherlink.com 1.10,2013-02-28 23:13:00,
2013-02-28 17:28:00,57.6,25.0,30.13,NNW,329,7.0,-999.0,28,-99.99,,,0.00,weatherlink.com 1.10,2013-02-28 23:28:00,
2013-02-28 17:58:00,56.6,24.0,30.14,NW,305,12.0,-999.0,29,-99.99,,,0.00,weatherlink.com 1.10,2013-02-28 23:58:00,
2013-02-28 18:14:00,56.0,25.0,30.14,NNW,329,6.0,-999.0,30,-99.99,,,0.00,weatherlink.com 1.10,2013-03-01 00:14:00,
2013-02-28 18:29:00,55.3,25.0,30.14,NNW,327,9.0,-999.0,31,-99.99,,,0.00,weatherlink.com 1.10,2013-03-01 00:29:00,
2013-02-28 18:44:00,54.8,25.0,30.14,NNW,333,7.0,-999.0,31,-99.99,,,0.00,weatherlink.com 1.10,2013-03-01 00:44:00,
2013-02-28 18:59:00,54.3,25.0,30.14,NNW,328,10.0,-999.0,32,-99.99,,,0.00,weatherlink.com 1.10,2013-03-01 00:59:00,
2013-02-28 19:14:00,53.8,26.0,30.15,NW,325,7.0,-999.0,34,-99.99,,,0.00,weatherlink.com 1.10,2013-03-01 01:14:00,
2013-02-28 19:29:00,53.1,26.0,30.15,NW,319,10.0,-999.0,35,-99.99,,,0.00,weatherlink.com 1.10,2013-03-01 01:29:00,
2013-02-28 19:43:00,52.7,26.0,30.16,NW,314,6.0,-999.0,35,-99.99,,,0.00,weatherlink.com 1.10,2013-03-01 01:43:00,
2013-02-28 19:58:00,52.3,26.0,30.15,NW,316,2.0,-999.0,36,-99.99,,,0.00,weatherlink.com 1.10,2013-03-01 01:58:00,
2013-02-28 20:13:00,51.7,26.0,30.16,NW,318,1.0,-999.0,37,-99.99,,,0.00,weatherlink.com 1.10,2013-03-01 02:13:00,
2013-02-28 20:28:00,51.2,26.0,30.16,NW,319,5.0,-999.0,37,-99.99,,,0.00,weatherlink.com 1.10,2013-03-01 02:28:00,
2013-02-28 20:43:00,50.8,26.0,30.16,NW,321,5.0,-999.0,38,-99.99,,,0.00,weatherlink.com 1.10,2013-03-01 02:43:00,
2013-02-28 20:58:00,50.0,26.0,30.16,NW,321,4.0,-999.0,39,-99.99,,,0.00,weatherlink.com 1.10,2013-03-01 02:58:00,
2013-02-28 21:13:00,49.0,25.0,30.17,NW,321,2.0,-999.0,40,-99.99,,,0.00,weatherlink.com 1.10,2013-03-01 03:13:00,
2013-02-28 21:29:00,47.9,26.0,30.17,NW,321,0.0,-999.0,42,-99.99,,,0.00,weatherlink.com 1.10,2013-03-01 03:29:00,
2013-02-28 21:44:00,47.5,25.0,30.18,NW,325,5.0,-999.0,42,-99.99,,,0.00,weatherlink.com 1.10,2013-03-01 03:44:00,
2013-02-28 21:59:00,47.5,25.0,30.18,NW,325,1.0,-999.0,42,-99.99,,,0.00,weatherlink.com 1.10,2013-03-01 03:59:00,
2013-02-28 22:13:00,47.2,25.0,30.18,NW,325,2.0,-999.0,42,-99.99,,,0.00,weatherlink.com 1.10,2013-03-01 04:13:00,
2013-02-28 22:28:00,46.9,25.0,30.18,NW,325,2.0,-999.0,42,-99.99,,,0.00,weatherlink.com 1.10,2013-03-01 04:28:00,
2013-02-28 22:43:00,46.4,25.0,30.18,NW,325,1.0,-999.0,43,-99.99,,,0.00,weatherlink.com 1.10,2013-03-01 04:43:00,
2013-02-28 22:58:00,45.7,24.0,30.17,NW,325,1.0,-999.0,43,-99.99,,,0.00,weatherlink.com 1.10,2013-03-01 04:58:00,
2013-02-28 23:13:00,44.7,25.0,30.18,NW,325,0.0,-999.0,46,-99.99,,,0.00,weatherlink.com 1.10,2013-03-01 05:13:00,
2013-02-28 23:28:00,43.6,24.0,30.18,NW,325,0.0,-999.0,47,-99.99,,,0.00,weatherlink.com 1.10,2013-03-01 05:28:00,
2013-02-28 23:43:00,42.4,24.0,30.18,NW,325,0.0,-999.0,48,-99.99,,,0.00,weatherlink.com 1.10,2013-03-01 05:43:00,
2013-02-28 23:58:00,41.2,24.0,30.18,NW,325,1.0,-999.0,50,-99.99,,,0.00,weatherlink.com 1.10,2013-03-01 05:58:00,